Location: Barig
(50.5167°N, 8.2000°E)
Time: 14:54:27
(UTC+00:00)

Daily predictions for brighter satellites

Satellite Brightness Start Highest point End
(mag) Time Altitude Azimuth Time Altitude Azimuth Time Altitude Azimuth
Cosmos 1844 3.8 20:17:20 10° NNW 20:23:10 84° ENE 20:28:54 10° SSE
Cosmos 2322 4.2 20:20:56 10° S 20:26:13 41° ESE 20:31:33 10° NE
Cosmos 1602 Rocket 4.3 20:26:00 10° SSW 20:30:22 59° WNW 20:34:48 10° N
Cosmos 2263 Rocket 4.5 20:27:11 10° WNW 20:30:56 19° W 20:34:40 10° SW
Nadezhda 1 Rocket 4.4 20:25:36 10° NNW 20:31:59 70° W 20:38:19 10° S
Cosmos 1709 Rocket 4.2 20:26:59 10° S 20:33:09 60° E 20:39:25 10° NNE
Atlas Centaur 2 4.2 20:33:10 10° SSW 20:35:24 12° S 20:37:49 10° SSE
Terra 2.5 20:32:03 10° SE 20:36:29 41° ENE 20:40:57 10° N
Cosmos 2237 Rocket 4.0 20:34:11 10° ESE 20:36:35 13° E 20:38:59 10° ENE
CARTOSAT-1 3.8 20:33:20 10° SSE 20:37:34 59° ENE 20:41:50 10° N
Cosmos 2333 4.5 20:32:36 10° S 20:37:58 47° ESE 20:43:26 10° NE
Cosmos 2219 Rocket 2.9 20:33:28 10° S 20:38:26 34° ESE 20:43:27 10° NE
Cosmos 2360 Rocket 2.2 20:34:33 10° SSW 20:40:12 86° ESE 20:45:55 10° NNE
IGS 5A 3.7 20:36:37 10° S 20:40:46 70° WSW 20:44:56 10° NNW
Cosmos 2333 Rocket 2.6 20:42:50 10° S 20:48:10 43° ESE 20:53:33 10° NE
Cosmos 1315 Rocket 3.2 20:46:30 10° N 20:50:30 51° ENE 20:54:13 12° SSE
ATLAS 2AS CENTAUR R/B 3.7 20:43:04 10° NW 20:50:35 49° NNE 20:57:31 10° ESE
Resurs 01 Rocket 3.6 20:49:06 10° SSW 20:52:49 26° W 20:56:31 10° NW
Cosmos-2242 3.5 20:49:42 10° NNW 20:54:00 61° W 20:58:17 10° S
Cosmos 1818 3.6 20:50:01 10° SW 20:55:27 89° NW 21:00:57 10° NE
Cosmos 773 Rocket 4.0 20:52:57 10° S 20:58:12 67° ESE 21:03:28 10° NNE
Cosmos 2221 3.3 20:54:49 10° N 20:58:57 38° ENE 21:02:29 13° SE
SL-16 R/B 3.8 20:54:05 10° WSW 20:59:23 39° NW 21:04:43 10° NNE
ERS-1 Rocket 3.1 20:57:00 10° SSE 21:02:02 82° WSW 21:07:07 10° NNW
GEOS 3 Rocket 3.7 20:57:28 10° NE 21:02:53 77° SE 21:08:17 10° SW
USA 215 3.4 20:59:56 10° ENE 21:06:18 50° SE 21:12:37 10° SSW
Cosmos 2278 Rocket 2.6 21:02:30 10° NNW 21:08:06 56° NE 21:13:09 13° SE
Cosmos 1892 4.2 21:07:01 14° SE 21:09:11 21° E 21:12:05 10° NE
ATLAS 5 CENTAUR R/B 1.7 21:07:53 10° SW 21:12:05 78° NW 21:16:55 10° NE
Cosmos 1844 Rocket 3.8 21:07:38 10° NW 21:12:43 37° WSW 21:17:47 10° S
Meteor 1-11 4.2 21:07:12 10° S 21:12:49 87° E 21:18:34 10° NNE
Cosmos 1400 Rocket 4.2 21:09:38 10° NNW 21:13:18 34° W 21:16:52 10° SSW
Gblst 52 Del rocket 4.3 21:08:45 10° WNW 21:14:23 70° SSW 21:20:34 11° ESE
Cosmos 1943 Rocket 4.5 21:11:38 10° N 21:15:24 18° NNE 21:19:09 10° ENE
SPOT 5 3.2 21:13:56 11° S 21:18:48 67° WSW 21:23:34 10° NNW
Lacrosse 5 rocket 3.2 21:16:42 10° WNW 21:20:31 32° N 21:24:09 10° ENE
SL-16 R/B 4.2 21:20:08 10° ESE 21:21:00 10° E 21:21:54 10° E
USA 81 4.2 21:20:26 10° S 21:25:43 81° W 21:31:03 10° N
BREEZE M DEB (TANK) 3.6 21:25:52 10° WSW 21:27:19 15° SW 21:27:39 15° SSW
Cosmos 2058 3.8 21:25:00 17° SSE 21:27:34 34° E 21:31:21 10° NNE
Cosmos 2181 Rocket 4.3 21:21:50 10° NNW 21:28:09 67° W 21:34:15 10° S
Cosmos 1408 4.1 21:29:06 16° ESE 21:30:39 21° E 21:33:24 10° NE
In-Cosmos 22 Rocket 4.4 21:29:55 16° SSE 21:33:56 48° E 21:39:03 10° NNE
TSX-5 3.6 21:31:28 10° NNW 21:34:52 77° ENE 21:37:36 19° SE
Cosmos 2074 Rocket 4.0 21:29:15 13° S 21:34:55 69° E 21:41:06 10° NNE
Cosmos 1076 Rocket 4.1 21:36:08 19° SSE 21:38:45 40° E 21:42:47 10° NNE
Cosmos 1680 Rocket 4.2 21:35:41 17° SSE 21:39:07 36° ESE 21:43:58 10° NE
USA 267 3.3 21:34:05 12° SE 21:40:14 79° SW 21:46:50 10° WNW
CZ-4C R/B 4.3 21:38:00 10° NW 21:43:46 32° NNE 21:50:28 10° E
Cosmos 2084 4.2 21:41:08 10° NW 21:45:23 43° SW 21:48:05 20° S
Cosmos 1842 Rocket 3.8 21:41:29 10° NNW 21:45:49 65° W 21:49:02 17° S
JB-3 4.2 21:43:24 10° NNE 21:47:16 74° ESE 21:49:57 19° S
COSMOS 2455 4.4 21:42:29 10° NNW 21:47:50 31° NE 21:53:09 10° E
Cosmos 2151 4.4 21:47:18 17° SE 21:49:20 25° E 21:52:49 10° NNE
MTI 3.6 21:48:10 10° NNE 21:51:16 88° WNW 21:53:10 21° SSW
Cosmos 923 Rocket 4.1 21:52:20 16° S 21:56:32 62° ESE 22:01:46 10° NNE
ATLAS CENTAUR R/B 2.4 21:53:31 10° WNW 21:56:42 28° WSW 21:58:26 19° SSW
Cosmos 1825 3.2 21:58:09 22° SE 21:59:41 31° E 22:03:04 10° NNE
Cosmos 2369 Rocket 4.2 21:55:46 10° NNW 22:00:05 22° NE 22:04:25 10° E
ALOS 2 3.7 21:58:03 16° ESE 22:00:54 34° ENE 22:04:53 10° N
Cosmos 1980 3.8 21:56:55 16° S 22:01:21 56° ESE 22:06:53 10° NE
COSMOS 2428 3.1 22:00:41 10° SW 22:06:19 67° WNW 22:12:01 10° NNE
Cosmos 1869 4.1 22:02:56 10° NNW 22:06:44 44° W 22:09:22 18° SSW
GP-B 4.3 22:05:15 10° NNE 22:09:09 29° E 22:11:23 19° SE
Cosmos 1624 Rocket 4.1 22:08:19 10° NNW 22:13:36 74° ENE 22:16:57 22° SSE
NOSS 0 Rocket 3.9 22:07:34 10° SSW 22:13:43 79° ESE 22:19:54 10° NNE
NOSS 3-4 (A) 3.8 22:07:06 10° NW 22:14:01 80° SW 22:19:46 19° SE
NOSS 3-4 (C) 3.8 22:07:13 10° NW 22:14:08 80° SW 22:19:55 19° SE
Terra 3.3 22:10:34 12° SSW 22:14:21 29° W 22:18:32 10° NNW
Cosmos 2237 Rocket 2.2 22:14:58 16° SSW 22:19:36 72° ESE 22:25:19 10° NNE
SL-4 R/B 3.1 22:19:54 12° ENE 22:20:09 12° ENE 22:21:02 10° NE
Genesis I 3.5 22:18:36 28° S 22:20:11 44° ESE 22:23:55 10° NE
Cosmos 2219 Rocket 3.1 22:16:50 10° SW 22:22:15 48° NW 22:27:43 10° NNE
Cosmos 2344 3.7 22:16:02 14° SSW 22:22:15 52° ESE 22:29:59 10° NE
Elektron 1 4.4 22:21:21 20° SSW 22:23:30 64° SE 22:29:09 10° NE
NOSS 3-3 (A) 4.3 22:19:04 10° SW 22:25:02 69° NW 22:31:54 10° NE
NOSS 3-3 (C) 4.3 22:19:10 10° SW 22:25:09 69° NW 22:32:01 10° NE
DELTA 2 R/B (1) 4.5 22:25:19 10° SW 22:29:47 25° S 22:30:03 25° SSE
Thor Agena Rocket 3.5 22:24:46 10° NNE 22:29:56 83° ESE 22:33:18 22° SSW
Cosmos 2333 Rocket 3.5 22:27:07 10° WSW 22:32:30 41° NW 22:37:56 10° NNE
Cosmos 2221 4.3 22:32:44 10° NNW 22:36:20 25° W 22:39:20 13° SW
Iridium 2 4.2 22:36:53 10° NNW 22:40:37 53° W 22:42:26 27° SSW
BREEZE-M DEB (TANK) 1.5 22:37:30 10° W 22:41:08 48° SSW 22:41:22 46° S
Cosmos 1371 Rocket 4.2 22:36:07 10° NNW 22:41:20 62° WSW 22:44:15 26° S
ATLAS 2AS CENTAUR R/B 3.0 22:34:25 10° NW 22:41:54 63° SW 22:46:25 23° SSE
EO 1 Del DPAF 3.3 22:39:17 10° N 22:43:04 75° WNW 22:44:59 27° SSW
Cosmos 1892 4.0 22:41:59 15° SW 22:44:40 35° WNW 22:48:12 10° N
MOS 1-B Rocket 4.4 22:36:51 10° NNE 22:44:49 90° ESE 22:49:56 19° SSW
Cosmos 1766 Rocket 3.7 22:44:24 30° SSE 22:46:23 59° E 22:50:45 10° NNE
Cosmos 1328 Rocket 3.7 22:44:04 10° N 22:48:22 64° ENE 22:50:25 29° SSE
Aureole 2 Rocket 1.8 22:45:39 10° NNW 22:48:29 78° WSW 22:48:59 55° S
Okean 3 Rocket 3.6 22:47:02 30° S 22:49:13 72° E 22:53:38 10° NNE
USA 215 3.5 22:42:59 10° ENE 22:49:32 73° NNW 22:56:04 10° WSW
Cosmos 1606 2.7 22:46:50 10° N 22:50:44 85° E 22:52:19 35° SSE
Cosmos 2278 Rocket 3.4 22:47:04 10° NW 22:51:54 29° WSW 22:54:59 18° SSW
Cosmos 2112 Rocket 4.2 22:48:24 17° SSW 22:52:37 74° WNW 22:58:01 10° NNE
Cosmos 2297 3.7 22:47:57 10° NNW 22:53:44 84° WSW 22:57:11 25° SSE
Cosmos 2218 Rocket 4.2 22:50:54 24° SSE 22:54:45 62° E 23:00:58 10° NNE
Cosmos 158 Rocket 4.2 22:52:56 16° SW 22:56:49 62° WNW 23:01:43 10° NNE
ATLAS 5 CENTAUR R/B 4.2 22:53:47 10° WNW 22:57:31 25° NNW 23:01:44 10° NE
Cosmos 1420 Rocket 4.0 22:52:16 10° NNW 22:57:34 89° ENE 23:00:36 26° SSE
Lacrosse 5 rocket 2.3 22:56:25 10° NW 23:00:21 44° NNE 23:04:03 10° E
Cosmos 1943 Rocket 2.6 22:54:44 10° NNW 23:00:23 60° NE 23:04:40 17° SE
Cosmos 2366 rocket 4.2 22:56:35 25° SSE 23:00:26 65° E 23:06:43 10° NNE
Cosmos 1633 3.9 23:01:11 24° ESE 23:02:12 28° E 23:05:21 10° NNE
SL-16 R/B 2.3 23:00:47 26° S 23:03:57 61° ESE 23:09:34 10° NE
Cosmos 2056 Rocket 4.1 23:00:01 10° NNW 23:05:12 47° WSW 23:07:58 26° SSW
Cosmos 1408 4.0 23:03:24 17° SW 23:05:30 31° WNW 23:08:44 10° N
Cosmos 1959 Rocket 4.5 23:06:20 26° S 23:10:02 77° E 23:16:15 10° NNE
YAOGAN 11 4.3 23:09:09 27° SE 23:11:24 64° ENE 23:15:48 10° N
Cosmos 1743 Rocket 4.4 23:12:36 25° SE 23:14:22 37° E 23:18:23 10° NNE
Cosmos 2341 Rocket 4.2 23:11:47 21° SSW 23:16:07 65° WNW 23:22:19 10° N
Cosmos 332 Rocket 3.7 23:14:08 10° NNW 23:18:58 89° ENE 23:21:28 29° SSE
USA 267 4.2 23:21:24 23° SSW 23:23:54 29° SW 23:29:27 10° WNW
Meteor 2-3 Rocket 3.7 23:21:02 27° S 23:24:12 78° E 23:29:55 10° NNE
IRIDIUM 104 4.5 23:23:26 27° SSW 23:26:21 69° W 23:31:35 10° N
Cosmos 2151 4.1 23:23:52 19° SW 23:26:26 38° WNW 23:30:27 10° N
Helios 1A 2.9 23:24:53 34° S 23:26:37 76° WSW 23:30:50 10° NNW
Cosmos 405 3.1 23:24:23 10° N 23:27:56 67° ENE 23:29:08 38° SSE
Meteor 1-26 Rocket 4.4 23:25:55 10° NNW 23:31:57 74° W 23:35:20 27° S
Cosmos 1452 Rocket 3.5 23:27:06 10° NNW 23:32:22 71° WSW 23:35:06 29° S
CZ-4C R/B 3.2 23:26:34 10° NW 23:33:28 69° NE 23:41:34 10° SE
COSMOS 2455 2.8 23:28:19 10° NW 23:34:23 79° WSW 23:38:24 22° SSE
PSLV R/B 4.2 23:30:51 10° NNE 23:34:52 42° E 23:36:34 28° SSE
SL-8 Rocket 4.3 23:30:59 22° SSW 23:35:05 62° WNW 23:41:12 10° N
Cosmos 1825 4.0 23:32:56 14° WSW 23:35:14 24° WNW 23:38:23 10° NNW
Cosmos 1340 2.8 23:34:23 35° SSW 23:35:50 68° WNW 23:39:36 10° N
Cosmos 1110 Rocket 4.5 23:31:04 10° NNW 23:36:18 59° ENE 23:40:16 17° SE
Cosmos 1933 4.1 23:32:56 10° NNW 23:36:44 40° W 23:38:13 28° SW
ALOS 2 3.8 23:35:27 23° SW 23:37:15 31° W 23:41:12 10° NNW
Cosmos 1408 Rocket 3.6 23:35:56 31° SSW 23:38:00 72° WNW 23:42:25 10° N
Cosmos 1151 Rocket 3.9 23:34:12 10° NNW 23:38:15 39° W 23:40:03 26° SW
SL-16 R/B 4.2 23:33:44 10° ESE 23:38:58 30° ENE 23:44:15 10° N
Cosmos 1727 Rocket 4.1 23:38:09 10° NNW 23:44:21 71° W 23:48:04 26° S
APEX 3.2 23:42:00 10° NW 23:44:22 36° WSW 23:44:22 36° WSW
Cosmos 2369 Rocket 2.2 23:39:19 10° NNW 23:44:57 86° ENE 23:48:49 21° SSE
Resurs 1-4 Rocket 4.3 23:41:54 10° NE 23:44:59 15° E 23:48:03 10° ESE
Cosmos 44 3.2 23:43:37 21° SW 23:46:30 70° NW 23:50:59 10° NE
GP-B 4.3 23:42:29 10° NNW 23:46:30 34° W 23:48:50 20° SW
Cosmos 1500 Rocket 3.6 23:44:49 32° S 23:46:46 74° E 23:51:10 10° NNE
SL-4 R/B 3.0 23:48:59 14° WNW 23:48:59 14° WNW 23:49:44 10° NW
Cosmos 371 Rocket 4.0 23:44:00 10° NW 23:48:30 39° WSW 23:50:25 27° SSW
SeaSat 1 4.3 23:45:50 10° ENE 23:49:13 18° ESE 23:51:20 14° SE
ISS -1.2 23:51:00 10° ESE 23:51:00 10° ESE 23:51:05 10° ESE
Helios 1B rocket 2.8 23:49:38 10° NNE 23:53:42 53° E 23:55:23 31° SSE
CREW DRAGON DEMO-1 DEB 2.7 23:54:49 22° WSW 23:56:37 89° N 23:59:42 10° ENE
